Theta_e
334 341 349 350 349 347 346 344 343 342 343 343 342 341 339 339 341 341 340 341 337 339 338 338 337 336 336 335 335 334 334 333 332 334 334 333 335 336 336 337 336 332 338
338 344 347 349 348 347 345 343 343 341 342 344 342 341 339 339 338 339 338 337 336 337 337 338 337 335 335 336 334 333 333 332 331 331 331 331 335 335 337 337 336 334 336
340 344 345 348 349 348 346 344 343 342 340 341 343 341 339 338 338 338 337 336 335 337 336 337 336 335 336 333 333 334 333 332 331 332 333 325 327 335 335 335 337 339 338
342 344 344 345 348 347 345 344 342 343 341 341 340 342 340 338 337 337 336 334 335 335 336 336 335 336 336 335 336 334 332 331 331 329 324 327 333 336 335 336 337 338 337
341 343 343 344 347 346 344 343 342 341 341 342 342 342 340 338 337 336 335 334 335 334 335 335 335 335 335 335 335 334 333 331 330 325 324 329 329 333 336 337 335 334 334
339 341 341 345 346 345 344 343 341 340 339 340 341 339 341 338 336 335 334 334 335 334 333 334 334 334 334 334 333 333 332 331 326 322 324 327 327 334 335 336 335 334 334
338 339 340 343 345 344 343 342 341 340 340 339 342 341 341 338 336 335 334 333 334 333 333 334 334 333 332 332 332 332 332 329 322 321 321 323 326 334 335 335 335 334 333
338 338 340 336 339 341 342 342 341 341 339 339 339 341 340 338 336 335 334 332 332 332 333 332 332 332 331 331 330 329 328 328 323 320 320 321 333 334 334 334 334 334 333
337 339 337 337 336 335 338 338 339 339 339 338 338 339 338 338 337 336 334 333 331 332 331 332 331 330 329 328 328 327 326 326 318 320 322 321 333 331 333 333 333 333 332
335 337 338 335 334 334 334 332 333 335 335 335 333 331 330 331 331 331 331 333 332 331 331 330 331 330 329 327 326 325 323 322 317 318 318 318 329 330 331 331 331 331 331
334 335 335 336 332 332 332 330 329 331 331 331 328 326 323 321 321 323 324 331 334 333 332 331 331 330 330 326 324 323 320 314 314 317 316 321 327 328 329 330 330 330 330
331 332 333 334 331 331 335 330 328 329 328 326 324 322 321 320 320 321 320 324 330 330 332 332 331 330 325 316 314 318 313 313 313 313 315 322 326 328 328 329 330 330 330
331 331 332 332 330 329 331 328 327 326 324 324 322 320 320 319 318 318 317 318 318 320 321 324 322 320 318 315 314 314 315 314 313 313 315 321 325 328 329 329 329 330 331
326 329 330 331 330 329 329 327 328 328 323 321 321 320 318 317 316 316 316 317 316 318 317 317 317 317 316 315 314 314 314 314 314 314 314 318 322 327 329 330 330 330 331
325 327 329 330 330 330 327 326 326 330 328 322 320 319 319 316 315 315 315 315 316 316 315 314 314 314 313 313 313 314 314 314 314 314 314 315 320 325 329 330 331 331 331
325 327 329 329 330 329 328 326 327 329 328 323 321 320 319 318 316 315 314 314 314 315 315 314 313 312 312 312 313 314 314 314 314 314 314 315 319 322 326 329 331 331 331
324 326 326 328 330 328 328 326 326 326 328 327 324 321 320 319 317 316 315 314 315 313 314 312 312 312 311 313 312 313 313 314 314 314 314 314 315 318 321 326 328 330 331
324 323 326 328 329 328 328 327 326 325 326 326 325 324 321 320 319 317 316 316 315 313 312 311 311 311 310 310 310 312 312 312 313 313 313 313 313 314 317 322 325 327 329
324 325 325 326 327 327 328 328 326 325 324 325 325 324 323 322 321 320 319 318 315 314 312 312 311 310 310 310 310 311 312 311 312 314 312 313 313 314 313 316 319 321 325
320 324 325 325 326 326 326 326 324 323 323 324 323 323 323 323 322 321 321 318 316 315 313 311 312 310 310 309 310 311 309 311 311 312 313 314 313 313 313 312 312 312 317
317 320 324 324 325 324 323 321 321 320 320 321 322 323 322 322 322 322 322 318 317 317 317 314 312 311 310 307 306 307 308 311 311 313 313 312 311 312 313 313 312 312 313
310 317 322 324 325 325 325 324 324 322 322 322 321 322 322 322 322 321 321 320 318 318 316 315 314 311 310 309 308 304 303 305 307 309 310 311 312 311 312 313 312 312 312
305 312 319 323 325 325 326 324 320 319 317 318 320 319 320 321 321 321 321 321 318 318 318 316 315 313 313 307 310 309 301 300 302 307 308 308 310 309 311 312 313 313 313
303 308 317 321 323 325 325 323 322 321 320 321 321 320 319 319 320 321 321 321 320 318 318 318 316 315 314 313 306 311 311 306 303 301 307 308 309 310 311 312 312 313 314
303 305 316 319 322 324 325 325 322 321 322 322 320 319 318 317 318 319 320 320 319 320 319 318 316 315 315 314 312 306 308 311 310 307 306 306 307 309 310 312 312 313 315
302 308 313 317 319 322 323 324 322 321 321 320 319 318 318 319 318 318 318 319 319 319 318 318 317 317 315 315 315 314 311 308 308 309 307 308 309 309 311 312 312 313 315
Wind_Speed
4 5 12 15 16 16 15 13 12 10 12 12 13 13 12 13 12 13 14 14 14 13 16 15 16 16 16 18 16 16 16 16 15 15 15 15 15 16 15 15 14 8 14
7 6 12 14 16 15 15 13 10 11 11 13 14 14 13 13 12 13 14 13 13 13 15 16 14 15 14 15 15 15 15 14 13 13 13 13 15 13 14 14 14 8 11
8 6 9 13 14 15 15 13 10 11 11 12 14 15 14 13 13 13 13 12 12 12 14 14 15 14 12 12 13 13 13 12 11 11 10 5 6 14 14 13 14 17 13
8 6 6 11 13 14 14 12 11 9 10 11 11 15 14 13 13 13 12 11 11 11 12 13 13 11 13 12 13 13 12 10 8 10 6 5 6 13 13 13 14 17 18
6 6 6 11 13 13 14 12 10 8 8 8 13 13 14 13 12 12 11 11 10 10 11 11 12 10 12 12 12 9 9 8 8 7 6 6 5 10 12 13 12 14 15
6 5 8 11 12 12 13 12 12 10 7 6 12 12 15 14 13 11 11 10 9 10 9 10 10 9 10 12 11 9 7 7 6 5 5 7 5 10 11 11 12 13 13
6 6 7 10 12 11 10 10 10 9 8 5 10 11 15 16 13 12 11 10 10 10 9 9 8 8 9 9 10 9 7 6 4 4 4 5 6 11 10 9 11 11 12
10 6 6 8 9 11 10 9 9 9 8 5 5 12 11 12 12 12 10 9 9 9 8 7 7 6 7 7 8 9 5 4 3 3 3 4 8 8 9 8 7 9 10
6 8 5 5 6 8 8 9 9 8 7 4 2 11 9 11 10 12 9 6 8 7 6 6 5 4 4 5 6 6 6 2 2 2 3 3 8 7 8 7 6 7 8
5 9 8 5 5 5 6 7 7 8 7 6 5 7 7 7 7 9 8 6 6 5 5 5 3 2 1 2 3 4 4 4 1 1 2 2 6 5 5 5 5 5 5
5 8 9 6 5 5 5 5 6 7 7 7 6 6 6 3 4 6 4 6 6 4 3 4 3 2 1 3 4 3 3 1 1 2 2 5 6 5 4 4 4 3 3
10 10 8 9 6 5 4 5 5 4 4 3 4 5 3 4 3 4 4 3 5 7 4 4 4 3 1 1 2 4 1 2 2 3 3 7 7 6 5 4 4 3 4
12 9 10 9 6 6 5 3 2 2 2 3 5 4 4 3 3 2 1 1 0 1 1 0 2 1 2 2 3 3 3 3 2 3 4 7 8 8 7 6 5 5 5
9 11 8 8 7 6 4 4 4 4 3 3 4 5 3 2 3 3 3 4 3 2 3 3 2 3 4 4 4 5 5 4 3 3 4 8 9 9 9 10 8 7 8
10 11 10 9 9 8 7 5 5 7 5 4 4 5 4 4 4 4 4 4 4 3 3 4 4 4 4 5 5 5 5 6 6 3 3 8 10 10 11 12 11 10 9
11 12 11 11 10 8 9 9 7 7 9 5 4 5 6 4 4 4 4 4 4 4 4 4 4 4 4 4 5 5 6 5 6 6 4 4 10 11 11 13 14 12 11
11 10 11 12 12 11 11 9 7 7 7 8 7 7 8 6 5 5 4 4 4 4 5 4 4 3 4 3 6 5 5 6 5 6 5 4 5 8 12 13 14 14 14
10 11 11 11 12 13 12 9 7 7 7 7 7 7 9 9 7 6 4 5 4 3 3 3 4 4 4 4 4 5 5 5 6 6 5 5 5 5 7 13 13 14 14
12 13 13 13 15 15 13 10 9 9 8 8 7 7 9 10 10 8 6 5 5 4 4 4 4 4 4 4 5 5 6 6 6 6 7 7 7 6 5 9 12 12 13
10 11 12 11 15 13 9 8 6 5 7 7 7 8 10 9 10 9 7 6 5 5 4 4 6 4 4 4 4 6 5 7 6 8 9 7 7 7 6 6 5 5 12
8 8 12 13 14 10 9 8 7 11 8 7 7 10 10 10 11 11 8 7 7 8 9 8 4 6 4 3 3 4 5 9 10 9 8 6 6 7 7 6 5 4 4
9 11 12 14 13 13 10 9 7 6 8 8 7 10 11 11 11 11 11 9 10 8 8 9 8 4 4 5 3 0 5 5 3 5 4 5 7 4 6 7 7 7 6
9 11 12 14 15 14 15 6 3 2 0 4 7 8 11 13 12 13 12 11 9 9 9 10 9 11 8 4 7 5 2 5 3 3 2 3 5 4 5 6 7 7 7
11 9 11 11 12 12 12 9 12 10 10 9 7 7 8 11 11 11 11 10 11 7 11 10 9 10 8 11 3 7 8 3 3 6 3 3 4 5 5 4 5 6 7
8 7 8 8 8 9 11 13 9 10 9 4 3 4 6 7 11 11 12 12 11 9 11 11 9 11 10 9 8 4 6 8 8 9 12 4 3 4 4 5 5 5 6
8 5 3 4 5 5 6 8 8 9 6 1 2 3 4 5 5 11 12 12 12 11 12 11 12 13 12 11 10 10 10 6 6 8 11 13 11 6 6 7 7 7 7
Wind_Direction
203 173 143 139 134 126 121 121 117 117 115 115 111 99 93 89 89 83 80 80 94 90 96 95 91 86 85 81 77 72 72 68 70 64 64 58 64 57 53 46 37 43 52
142 158 148 146 139 137 128 125 124 131 122 111 115 105 98 98 97 92 92 94 94 105 100 97 95 88 83 88 87 79 81 81 78 71 66 66 55 60 56 47 35 29 45
137 148 155 153 146 141 134 135 138 141 132 126 119 113 106 106 100 94 101 104 105 106 103 103 95 86 73 83 88 88 84 82 66 58 61 35 71 53 47 42 42 55 68
141 143 146 145 144 137 133 139 147 155 146 136 133 125 114 113 106 104 101 110 110 106 108 105 98 80 67 78 90 87 88 89 66 39 15 359 45 55 46 52 55 51 45
139 142 146 140 146 144 139 145 151 155 152 136 129 123 123 116 114 111 112 116 114 110 110 107 100 80 66 63 55 85 88 73 56 42 24 3 30 48 50 70 58 51 49
139 136 153 152 153 149 148 152 157 154 161 158 140 138 134 125 120 114 119 121 118 111 116 109 103 90 63 62 53 57 106 75 55 34 25 13 8 55 56 59 59 54 56
147 146 159 159 159 154 154 158 155 160 163 160 134 130 139 131 130 131 131 136 137 124 125 124 115 98 79 67 60 64 104 84 64 40 26 13 358 37 51 50 54 55 53
161 156 160 168 165 157 162 166 163 163 167 188 162 128 138 130 136 136 143 147 144 138 144 134 118 99 90 78 67 58 68 85 59 40 20 6 349 51 47 49 47 57 50
148 164 162 173 174 167 168 169 168 166 172 170 209 136 139 139 147 136 141 158 160 151 155 139 126 104 93 87 77 59 54 102 68 17 13 355 348 30 42 41 34 46 53
160 180 180 175 177 173 173 176 173 171 172 180 136 115 118 146 135 121 146 168 184 178 164 156 149 143 118 65 76 61 43 45 23 342 331 313 337 3 39 35 22 9 47
193 193 192 183 183 179 179 185 178 182 180 176 166 157 120 100 108 123 147 190 185 189 167 184 196 223 343 359 351 -0 48 25 318 279 291 302 311 329 356 11 2 347 337
205 206 202 200 182 179 181 172 191 187 185 192 181 178 158 148 156 157 178 221 216 183 192 214 224 236 330 310 311 335 350 303 295 281 276 285 290 301 321 325 327 319 317
207 209 205 203 188 178 181 176 177 175 187 190 197 192 184 164 175 168 184 277 100 224 182 268 301 304 269 274 286 289 292 284 266 268 275 283 282 277 289 292 293 288 281
192 206 198 193 188 191 171 179 183 187 184 199 199 197 179 188 195 196 196 207 214 195 210 221 237 241 248 260 262 278 283 282 269 264 267 273 277 271 274 281 281 279 283
206 202 202 189 194 192 186 179 179 203 203 198 196 196 182 191 202 198 213 204 209 198 206 217 228 244 259 263 263 258 272 268 269 265 260 265 270 271 272 272 275 276 276
229 222 197 197 199 188 197 190 194 198 209 191 195 198 197 194 201 206 213 216 224 206 208 209 216 226 237 239 259 253 258 260 258 260 257 261 262 266 267 269 270 270 270
227 229 214 204 189 194 202 202 196 196 198 205 202 193 197 197 201 201 214 226 225 219 225 216 236 239 254 255 260 258 260 259 255 250 251 248 258 257 259 262 264 265 264
229 212 213 206 203 199 200 199 202 197 197 204 202 199 199 199 196 201 210 223 222 218 221 226 218 238 240 239 259 263 252 253 257 253 244 243 236 242 252 254 255 256 259
228 226 214 203 206 207 204 196 200 200 200 205 195 198 206 205 200 206 210 219 197 208 211 217 234 210 235 249 254 259 260 255 253 257 243 234 233 232 230 245 243 242 248
234 226 221 209 211 206 202 203 197 195 206 205 202 205 197 205 206 205 210 201 190 204 217 220 230 220 228 237 266 273 264 261 248 247 249 239 221 228 224 228 234 236 238
241 218 214 208 210 190 196 195 210 211 204 212 206 209 202 205 201 205 217 200 193 210 213 205 204 223 247 196 325 291 266 247 246 242 239 235 222 227 226 222 221 229 239
243 226 222 213 207 201 200 208 208 198 219 211 204 210 205 205 203 204 208 210 205 212 211 206 202 213 230 172 209 13 309 322 287 243 227 231 235 212 232 224 211 216 222
256 241 225 217 208 208 207 191 155 87 104 187 207 207 210 204 205 208 209 213 205 208 224 214 205 207 233 207 199 190 278 246 319 319 275 244 254 217 231 233 223 220 214
264 248 225 218 208 208 195 194 199 210 223 226 220 205 200 205 212 213 224 221 223 210 224 217 205 212 206 236 199 228 238 171 262 313 309 276 241 233 237 234 233 230 214
288 249 224 210 193 199 193 205 201 210 230 230 215 225 206 188 205 208 210 214 221 221 229 227 213 206 211 228 215 172 222 238 233 246 279 271 303 244 233 230 216 239 231
341 350 247 205 217 185 180 205 208 229 249 269 238 224 213 215 212 219 214 215 220 222 227 226 225 222 220 225 226 219 211 201 200 215 238 258 257 244 223 230 229 229 236